Location: Rimouski
(48.4330°N, 68.5170°W)
Time: 22:27:42
(UTC-04:00)

Daily predictions for brighter satellites

Satellite Brightness Start Highest point End
(mag) Time Altitude Azimuth Time Altitude Azimuth Time Altitude Azimuth
SAR-Lupe-4 3.6 20:15:45 10° SSE 20:19:20 73° ENE 20:22:56 10° N
SPOT 5 4.3 20:19:33 10° ESE 20:23:00 21° ENE 20:26:22 10° NNE
USA 186 2.3 20:20:08 10° S 20:23:02 55° W 20:26:06 10° NNW
Cosmos 1867 4.1 20:17:48 10° NW 20:23:11 59° WSW 20:28:30 10° SSE
Cosmos 2266 Rocket 4.3 20:17:20 10° N 20:23:30 53° ENE 20:29:44 10° SSE
SeaSat 1 4.1 20:20:22 10° E 20:24:04 22° NE 20:27:47 10° N
Cosmos 2263 Rocket 3.3 20:19:18 10° NW 20:24:34 44° WSW 20:29:50 10° S
Cosmos 1933 3.3 20:23:37 10° S 20:27:39 88° ESE 20:31:42 10° N
ERS-1 Rocket 3.5 20:22:59 10° SE 20:27:42 42° ENE 20:32:26 10° N
H-2A R/B 3.7 20:27:03 10° E 20:30:12 17° ENE 20:33:20 10° NNE
NOSS 3-1 (C) 4.4 20:27:32 10° SSE 20:31:54 22° ESE 20:36:38 10° ENE
SAR-Lupe-1 4.1 20:32:59 10° SSE 20:36:35 82° WSW 20:40:12 10° NNW
USA 229 DEB 3.8 20:32:27 10° SSW 20:39:06 58° ESE 20:45:54 10° NE
USA 229 3.8 20:32:34 10° SSW 20:39:12 57° ESE 20:46:00 10° NE
Meteor 1-26 Rocket 4.3 20:34:01 10° S 20:39:40 63° E 20:45:27 10° NNE
Cosmos 2279 Rocket 4.3 20:34:52 10° SSW 20:41:06 74° W 20:47:21 10° N
Cosmos 2221 Rocket 4.1 20:38:45 10° SSE 20:42:53 40° E 20:47:04 10° NNE
Cosmos 2322 Rocket 3.4 20:38:19 10° SW 20:43:42 47° NW 20:49:10 10° NNE
Cosmos 1782 4.0 20:42:48 11° SE 20:45:54 24° E 20:49:08 10° NE
Cosmos 2237 4.3 20:43:52 10° S 20:49:27 57° ESE 20:55:04 10° NE
NOSS 3-1 (A) 4.5 20:45:20 10° SSE 20:49:42 22° ESE 20:54:25 10° ENE
Cosmos 2360 Rocket 2.2 20:44:11 10° SSW 20:49:51 89° SE 20:55:35 10° NNE
ATLAS 5 CENTAUR R/B 3.7 20:46:46 10° NW 20:52:09 35° WSW 20:57:56 10° S
H-2A R/B 4.1 20:50:35 10° E 20:53:03 15° ENE 20:55:33 10° NNE
Cosmos 1908 Rocket 4.0 20:51:23 10° NNW 20:55:41 63° W 20:59:58 10° S
Terra 3.7 20:53:47 10° E 20:56:42 16° ENE 20:59:36 10° NNE
USA 267 3.3 20:51:36 10° NE 20:58:10 88° SE 21:04:45 10° WSW
COSMOS 2428 2.9 20:53:42 10° S 20:59:12 52° ESE 21:04:44 10° NE
Resurs 01 Rocket 4.2 20:58:18 10° SW 21:01:33 20° W 21:04:49 10° NW
Cosmos 1844 3.7 20:57:35 10° NNW 21:03:17 73° ENE 21:07:53 16° SE
BREEZE-M DEB (TANK) 3.9 21:00:12 10° W 21:03:48 71° S 21:15:13 10° E
ARGOS 3.5 20:59:44 14° SE 21:04:08 49° ENE 21:09:19 10° N
Cosmos 1777 Rocket 4.2 20:59:08 10° NNW 21:04:26 76° WSW 21:09:29 11° SSE
NOAA 11 4.3 20:59:33 12° SSE 21:04:35 65° ENE 21:10:01 10° N
Cosmos 1939 Rocket 3.8 21:02:23 10° S 21:06:15 47° W 21:10:06 10° NNW
ATLAS 3B R/B 4.2 21:02:47 10° NW 21:08:44 28° NNE 21:14:27 10° E
Atlas Centaur 2 4.3 21:05:57 10° SW 21:09:50 16° S 21:12:50 13° SSE
Cosmos 1782 Rocket 3.7 21:06:14 10° NNW 21:10:37 74° W 21:15:00 10° S
Cosmos 2322 4.0 21:06:49 10° SW 21:12:31 74° WNW 21:18:15 10° NNE
Abrixas rocket 2.2 21:10:18 10° W 21:13:34 64° SSW 21:15:18 25° ESE
Okean 1-7 3.0 21:09:57 10° S 21:14:20 77° E 21:18:46 10° NNE
YAOGAN 6 3.1 21:11:36 10° S 21:15:10 58° W 21:18:44 10° NNW
Cosmos 1606 3.2 21:13:17 20° SSE 21:15:27 38° E 21:19:00 10° NNE
Cosmos 2084 3.1 21:11:55 10° NW 21:15:46 86° NE 21:18:10 23° SE
SL-16 R/B 4.3 21:11:13 10° WSW 21:16:12 31° NW 21:21:13 10° NNE
MOS 1-B Rocket 4.0 21:12:26 16° SE 21:17:00 62° ENE 21:22:33 10° N
SPOT 1/Viking Rocket 4.0 21:14:21 18° SE 21:17:57 48° ENE 21:22:57 10° N
Meteor 1-11 Rocket 4.3 21:12:50 10° N 21:18:04 41° ENE 21:21:30 20° SE
Meteor 1-25 Rocket 4.3 21:14:46 10° NNW 21:20:22 75° W 21:25:49 10° S
Meteor 1-20 Rocket 4.3 21:19:27 10° NNW 21:25:04 77° W 21:30:20 12° S
Cosmos 1844 Rocket 3.0 21:19:48 10° NNW 21:25:19 63° WSW 21:29:48 16° S
CZ-4C R/B 2.9 21:19:20 10° NW 21:26:18 77° NE 21:31:55 20° SE
MetOp-A 4.2 21:22:19 15° SSE 21:26:53 86° WSW 21:32:17 10° NNW
SL-08 RB Rocket 3.8 21:27:01 23° SSE 21:29:48 62° ENE 21:34:18 10° N
Cosmos 2237 Rocket 2.9 21:26:55 19° SSE 21:30:09 33° ESE 21:35:11 10° NE
Okean 2 Rocket 3.5 21:26:59 10° NNW 21:31:29 63° W 21:35:19 14° S
USA 245 3.8 21:27:57 19° SSE 21:31:46 79° ENE 21:36:07 10° N
Cosmos 2278 Rocket 2.3 21:26:23 10° NNW 21:32:04 69° ENE 21:35:33 24° SE
Cosmos 2333 4.2 21:29:06 10° SSW 21:34:50 85° ESE 21:40:40 10° NNE
USA 234 3.5 21:30:18 20° SSE 21:34:59 58° SW 21:41:26 10° WNW
Helios 1B rocket 4.5 21:31:50 10° N 21:35:24 29° WNW 21:38:59 10° SW
S3M 4.4 21:34:02 21° SSE 21:37:46 45° E 21:43:39 10° NNE
Cosmos 2333 Rocket 2.4 21:32:37 10° S 21:38:10 51° ESE 21:43:44 10° NE
Cosmos 1633 2.5 21:43:15 10° N 21:46:58 84° E 21:48:21 37° SSE
Meteor 2-6 Rocket 4.3 21:41:57 12° S 21:47:29 78° E 21:53:25 10° NNE
Cosmos 1536 3.5 21:45:29 10° N 21:49:18 38° ENE 21:50:16 32° ESE
IGS 5A 4.3 21:48:38 29° ESE 21:49:53 36° ENE 21:53:42 10° N
Cosmos 2219 Rocket 2.1 21:45:58 10° SSW 21:51:33 77° ESE 21:57:12 10° NNE
deb Chang Zheng 4 4.4 21:53:15 10° NNE 21:57:09 31° E 21:57:27 30° ESE
SPOT 5 3.3 21:57:51 21° S 22:00:47 54° W 22:05:14 10° NNW
CARTOSAT-1 3.9 21:59:33 37° ESE 22:00:51 50° ENE 22:05:04 10° N
SeaSat 1 2.4 21:58:47 32° SSE 22:01:06 83° WSW 22:06:05 10° NNW
Cosmos 1745 Rocket 4.0 21:59:30 10° N 22:05:53 78° E 22:09:16 30° SSE
Cosmos 2151 Rocket 4.1 22:01:57 10° NNW 22:06:19 56° W 22:08:40 26° SSW
NOSS 0 Rocket 3.8 22:00:46 10° SSW 22:06:52 71° ESE 22:13:00 10° NNE
Cosmos 2298 Rocket 4.0 22:02:33 10° NNW 22:07:55 75° ENE 22:10:03 37° SE
H-2A R/B 2.0 22:06:42 32° S 22:09:04 78° WSW 22:14:00 10° NNW
Aureole 2 Rocket 3.0 22:10:36 36° NNE 22:10:36 36° NNE 22:12:25 10° NNE
Cosmos 1937 Rocket 3.5 22:09:39 10° NNW 22:14:56 74° ENE 22:16:46 41° SE
Okean 1 Rocket 3.0 22:11:11 10° N 22:15:40 74° E 22:16:49 48° SSE
Cosmos 1674 Rocket 3.4 22:15:44 42° S 22:17:10 86° E 22:21:30 10° N
Cosmos 1570 Rocket 4.3 22:12:31 10° SSW 22:17:45 68° WNW 22:23:03 10° NNE
Landsat 7 3.8 22:16:56 38° S 22:18:43 78° WSW 22:23:31 10° NNW
PSLV R/B 3.9 22:20:20 43° NNE 22:20:20 43° NNE 22:22:28 10° N
Cosmos 1602 4.3 22:16:03 10° NNW 22:19:48 51° W 22:20:56 37° SW
Cosmos 990 Rocket 4.0 22:15:16 10° NNW 22:20:26 69° ENE 22:22:03 43° SE
NOSS 3-1 (C) 3.5 22:16:00 10° SW 22:21:54 79° NW 22:28:39 10° NE
ASTEX 1 3.4 22:21:11 38° S 22:23:08 84° W 22:28:09 10° N
Iridium 4 Rocket 2.8 22:19:19 10° N 22:23:29 86° E 22:24:23 55° S
Cosmos 2285 Rocket 4.4 22:23:22 36° SE 22:25:02 43° ESE 22:31:00 10° NE
Cosmos 2369 Rocket 4.0 22:20:49 10° N 22:25:04 21° NE 22:28:30 13° E
DMSP B5D2-2 4.0 22:21:18 10° NNE 22:26:36 73° ESE 22:28:35 39° S
Cosmos 858 Rocket 4.5 22:22:13 10° NNW 22:27:27 76° WSW 22:29:09 43° S
CRYOSAT 2 4.3 22:26:18 46° SSE 22:27:46 83° E 22:32:40 10° N
H-2A R/B 2.1 22:27:25 50° S 22:28:28 76° WSW 22:32:54 10° NNW
Cosmos 2297 3.6 22:24:54 10° NNW 22:30:40 88° ENE 22:32:35 44° SSE
Cosmos 1346 Rocket 3.5 22:31:35 30° SW 22:33:12 50° WNW 22:37:08 10° N
Terra 1.8 22:32:31 48° S 22:33:51 79° WSW 22:38:38 10° NNW
Cosmos 1812 4.1 22:35:15 27° ENE 22:35:15 27° ENE 22:37:53 10° NNE
Meteor 1-27 Rocket 4.0 22:33:10 22° SSW 22:36:50 66° WNW 22:42:23 10° N
NOSS 3-1 (A) 3.5 22:33:48 10° SW 22:39:43 80° NW 22:46:30 10° NE
USA 267 4.2 22:34:41 10° ENE 22:40:55 49° NNW 22:47:09 10° W
ATLAS 2AS CENTAUR R/B 3.5 22:39:31 36° SE 22:41:06 39° ESE 22:48:26 10° NE
Cosmos 2150 Rocket 4.2 22:35:53 10° NNW 22:41:19 69° WSW 22:42:57 45° S
Cosmos 1763 Rocket 3.7 22:41:14 48° ESE 22:41:39 49° ESE 22:46:45 10° NNE
Cosmos 1975 Rocket 3.3 22:42:51 52° E 22:42:54 52° E 22:47:16 10° NNE
Cosmos 1898 Rocket 4.0 22:37:57 10° NNW 22:42:57 49° WSW 22:44:33 37° SSW
COSMOS 2428 4.4 22:38:39 10° WSW 22:43:44 32° NW 22:48:52 10° NNE
DELTA 2 DEB (DPAF) 4.0 22:46:43 65° SE 22:47:15 75° ENE 22:51:46 10° N
Cosmos 1980 4.0 22:42:14 12° SW 22:47:23 66° WNW 22:53:03 10° NNE
Cosmos 1125 Rocket 4.1 22:46:53 10° NNW 22:52:03 48° ENE 22:53:19 40° E
ALOS 2 4.2 22:52:16 22° ENE 22:52:49 23° ENE 22:56:16 10° NNE
SL-16 R/B 2.2 22:53:20 52° SSE 22:54:27 64° ESE 23:00:06 10° NNE
Spot 4 3.7 22:57:04 65° S 22:57:47 84° WSW 23:02:36 10° NNW
ATLAS 3B R/B 2.7 22:53:45 10° NW 23:00:39 71° NE 23:03:13 40° ESE
Cosmos 2315 Rocket 3.9 23:01:58 49° SSE 23:03:43 76° E 23:09:57 10° NNE
Cosmos 1340 3.2 23:04:48 51° NE 23:04:48 51° NE 23:07:48 10° NNE
Cosmos 1975 3.3 23:02:01 10° N 23:05:31 50° NE 23:05:31 50° NE
Cosmos 371 Rocket 3.2 23:05:52 69° SE 23:06:01 70° ESE 23:10:53 10° NNE
CZ-2C R/B 4.0 23:02:43 10° NE 23:07:13 25° E 23:07:13 25° E
Cosmos 1814 Rocket 3.9 23:06:52 49° SW 23:08:15 79° WNW 23:13:26 10° NNE
CZ-4 R/B 3.9 23:06:23 10° N 23:11:13 74° WNW 23:12:14 54° SW
ATLAS CENTAUR R/B 1.4 23:12:44 76° N 23:12:44 76° N 23:16:35 10° NE
Cosmos 2237 Rocket 3.1 23:08:37 10° SW 23:14:02 47° NW 23:19:34 10° NNE
Cosmos 1378 Rocket 4.4 23:13:22 39° WSW 23:14:20 46° WNW 23:18:38 10° N
CZ-4C R/B 4.0 23:08:23 10° NW 23:14:33 31° WSW 23:17:07 26° SSW
Okean 3 4.3 23:14:07 38° WSW 23:14:50 42° WNW 23:18:51 10° N
Cosmos 1500 3.7 23:11:38 10° N 23:14:53 58° NNE 23:14:53 58° NNE
Cosmos 2278 Rocket 3.9 23:11:25 10° NW 23:15:36 22° W 23:17:25 18° SW
CZ-4B R/B 3.4 23:11:04 10° NNE 23:15:51 77° WNW 23:16:36 62° SW
Cosmos 2333 Rocket 3.8 23:17:28 10° WSW 23:22:40 34° NW 23:27:54 10° NNE
Geosat 4.0 23:18:52 10° NNE 23:23:56 79° WNW 23:25:03 54° SW
Cosmos 1544 Rocket 3.5 23:21:05 10° NNW 23:25:20 78° WNW 23:25:20 78° WNW
Cosmos 1709 Rocket 4.4 23:19:24 10° NNW 23:25:40 59° W 23:27:37 42° SSW
Cosmos 332 Rocket 4.1 23:26:46 50° WSW 23:27:44 62° WNW 23:32:32 10° NNE
Cosmos 1607 3.9 23:21:38 10° NW 23:28:01 80° SW 23:29:22 58° SSE
Cosmos 2184 Rocket 4.1 23:22:15 10° N 23:28:39 69° E 23:30:03 54° SE
Cosmos 841 Rocket 3.3 23:28:08 70° SSW 23:28:45 86° WNW 23:33:58 10° NNE
USA 238 DEB 3.8 23:22:39 10° NW 23:29:46 79° NE 23:32:15 44° SE
USA 238 3.8 23:22:45 10° NW 23:29:51 78° NE 23:32:22 44° SE
NOSS 2-3 (C) 4.0 23:30:21 65° ESE 23:30:21 65° ESE 23:35:46 10° NE
Uosat 12 SS-18 rocket 4.4 23:30:46 63° ENE 23:30:46 63° ENE 23:35:23 10° NE
CZ-2C R/B 3.3 23:30:18 48° E 23:30:42 50° ENE 23:35:34 10° N
Cosmos 1932 4.5 23:27:57 10° NW 23:34:30 72° WSW 23:35:45 58° S
Cosmos 2219 Rocket 4.3 23:31:40 10° W 23:36:09 24° NW 23:40:40 10° N
Okean 1 3.8 23:40:45 57° N 23:40:45 57° N 23:44:02 10° N
Meteor 2-13 Rocket 4.3 23:35:39 10° N 23:41:45 78° E 23:42:46 62° SE
SL-08 ROCKET BODY 4.3 23:36:23 10° N 23:42:22 79° W 23:43:24 62° SSW
Cosmos 1943 4.3 23:46:51 31° E 23:46:51 31° E 23:51:08 10° NE
USA 81 4.4 23:46:54 49° WSW 23:47:46 55° W 23:52:59 10° N
H-2A R/B 4.5 23:48:24 10° W 23:49:19 10° W 23:50:14 10° WNW
CZ-4B R/B 3.8 23:51:30 17° NE 23:51:30 17° NE 23:53:01 10° NNE
Meteor 2-4 Rocket 4.3 23:52:57 40° E 23:52:58 40° E 23:58:04 10° NNE
Cosmos 1455 Rocket 3.7 23:49:44 10° NNW 23:53:44 48° WNW 23:53:44 48° WNW
